Tracking 29487 objects as of 11-Sep-2024
HD Live streaming from Space Station
objects crossing your sky now

STARLINK-3582

Track STARLINK-3582 now!
10-day predictions
STARLINK-3582 is classified as:


NORAD ID: 51873
Int'l Code: 2022-022X
Perigee: 545.9 km
Apogee: 547.9 km
Inclination: 53.2 °
Period: 95.4 minutes
Semi major axis: 6917 km
RCS: Unknown
Launch date: March 3, 2022
Source: United States (US)
Launch site: AIR FORCE EASTERN TEST RANGE (AFETR)
Your satellite tracking list
Your tracking list is empty




NASA's NSSDC Master Catalog

Two Line Element Set (TLE):
1 51873U 22022X   24255.50838027 -.00000301  00000-0 -81179-6 0  9991
2 51873  53.2167 292.0559 0001412  96.3077 263.8076 15.08842350140960
Source of the keplerian elements: AFSPC